When you browse on this site, cookies collect data to enhance your experience and personalize the content and advertising you see.
Visit our Privacy Policy to learn more. By continuing to use the site, you agree to this use of cookies and data.
  • In Hungary
  • List of Countries
  • For 7 days
  • Water Temperature
  • Satellite Maps
  • Weather Map
  • News
  • Weather Widgets
  • user-avatar
    Login

    Hourly Weather Korfu

    Today, 17 January, Thursday

    Time Temperature Precipitation Wind Pressure Humidity
    00:00 +7°C° 0 mm 2 mps 763 mmHg 63%
    01:00 +7°C° 0 mm 2 mps 763 mmHg 66%
    02:00 +7°C° 0 mm 2 mps 763 mmHg 68%
    03:00 +7°C° 0 mm 2 mps 763 mmHg 70%
    04:00 +7°C° 0 mm 3 mps 763 mmHg 72%
    05:00 +7°C° 0 mm 3 mps 763 mmHg 73%
    06:00 +7°C° 0 mm 3 mps 763 mmHg 73%
    07:00 +6°C° 0 mm 4 mps 762 mmHg 75%
    08:00 +7°C° 0 mm 4 mps 762 mmHg 71%
    09:00 +8°C° 0 mm 4 mps 762 mmHg 67%
    10:00 +10°C° 0 mm 4 mps 762 mmHg 62%
    11:00 +11°C° 0 mm 4 mps 762 mmHg 63%
    12:00 +11°C° 0 mm 4 mps 762 mmHg 63%
    13:00 +12°C° 0 mm 4 mps 761 mmHg 63%
    14:00 +12°C° 0 mm 4 mps 761 mmHg 66%
    15:00 +11°C° 0 mm 4 mps 761 mmHg 70%
    16:00 +11°C° 0 mm 4 mps 761 mmHg 73%
    17:00 +11°C° 0 mm 4 mps 761 mmHg 75%
    18:00 +11°C° 0 mm 4 mps 761 mmHg 77%
    19:00 +11°C° 0 mm 4 mps 761 mmHg 78%
    20:00 +11°C° 0.2 mm 4 mps 761 mmHg 79%
    21:00 +11°C° 0.2 mm 4 mps 761 mmHg 81%
    22:00 +11°C° 0.2 mm 4 mps 761 mmHg 82%
    23:00 +11°C° 0.2 mm 4 mps 761 mmHg 82%

    Tomorrow, 18 January, Friday

    Time Temperature Precipitation Wind Pressure Humidity
    00:00 +10°C° 0.2 mm 5 mps 761 mmHg 82%
    01:00 +10°C° 0.2 mm 5 mps 760 mmHg 82%
    02:00 +10°C° 0.1 mm 5 mps 760 mmHg 82%
    03:00 +10°C° 0.1 mm 5 mps 760 mmHg 82%
    04:00 +10°C° 0.1 mm 6 mps 760 mmHg 82%
    05:00 +10°C° 0.5 mm 6 mps 759 mmHg 82%
    06:00 +10°C° 0.5 mm 7 mps 759 mmHg 82%
    07:00 +10°C° 0.5 mm 7 mps 759 mmHg 83%
    08:00 +10°C° 2.7 mm 7 mps 759 mmHg 85%
    09:00 +10°C° 2.7 mm 7 mps 759 mmHg 87%
    10:00 +10°C° 2.7 mm 8 mps 759 mmHg 90%
    11:00 +10°C° 4.6 mm 7 mps 759 mmHg 90%
    12:00 +10°C° 4.6 mm 7 mps 759 mmHg 91%
    13:00 +10°C° 4.6 mm 7 mps 759 mmHg 92%
    14:00 +10°C° 3.6 mm 7 mps 758 mmHg 91%
    15:00 +10°C° 3.6 mm 7 mps 758 mmHg 89%
    16:00 +11°C° 3.6 mm 6 mps 758 mmHg 88%
    17:00 +11°C° 1.7 mm 6 mps 758 mmHg 87%
    18:00 +11°C° 1.7 mm 7 mps 759 mmHg 85%
    19:00 +11°C° 1.7 mm 7 mps 759 mmHg 84%
    20:00 +11°C° 1.2 mm 7 mps 759 mmHg 84%
    21:00 +11°C° 1.2 mm 7 mps 759 mmHg 84%
    22:00 +11°C° 1.2 mm 7 mps 759 mmHg 83%
    23:00 +10°C° 0.7 mm 7 mps 759 mmHg 83%

    Day after tomorrow, 19 January, Saturday

    Time Temperature Precipitation Wind Pressure Humidity
    00:00 +10°C° 0.7 mm 7 mps 759 mmHg 83%
    01:00 +10°C° 0.7 mm 6 mps 759 mmHg 82%
    02:00 +10°C° 0.3 mm 7 mps 758 mmHg 82%
    03:00 +10°C° 0.3 mm 7 mps 758 mmHg 82%
    04:00 +10°C° 0.3 mm 7 mps 758 mmHg 82%
    05:00 +10°C° 0 mm 7 mps 758 mmHg 82%
    06:00 +10°C° 0 mm 7 mps 758 mmHg 81%
    07:00 +10°C° 0 mm 7 mps 758 mmHg 81%
    08:00 +10°C° 0 mm 7 mps 758 mmHg 79%
    09:00 +11°C° 0 mm 7 mps 758 mmHg 78%
    10:00 +11°C° 0 mm 7 mps 758 mmHg 77%
    11:00 +11°C° 0.2 mm 7 mps 758 mmHg 79%
    12:00 +11°C° 0.2 mm 7 mps 757 mmHg 81%
    13:00 +11°C° 0.2 mm 7 mps 757 mmHg 83%
    14:00 +10°C° 0.4 mm 7 mps 757 mmHg 84%
    15:00 +10°C° 0.4 mm 6 mps 757 mmHg 85%
    16:00 +10°C° 0.4 mm 6 mps 757 mmHg 86%
    17:00 +10°C° 0.4 mm 6 mps 757 mmHg 86%
    18:00 +10°C° 0.4 mm 6 mps 757 mmHg 85%
    19:00 +10°C° 0.4 mm 6 mps 757 mmHg 84%
    20:00 +11°C° 0.5 mm 6 mps 758 mmHg 83%
    21:00 +11°C° 0.5 mm 6 mps 758 mmHg 83%
    22:00 +11°C° 0.5 mm 6 mps 758 mmHg 82%
    23:00 +11°C° 0.6 mm 6 mps 758 mmHg 83%

    20 January, Sunday

    Time Temperature Precipitation Wind Pressure Humidity
    00:00 +10°C° 0.6 mm 6 mps 758 mmHg 83%
    01:00 +10°C° 0.6 mm 6 mps 758 mmHg 83%
    02:00 +10°C° 0.3 mm 6 mps 758 mmHg 84%
    03:00 +10°C° 0.3 mm 6 mps 757 mmHg 84%
    04:00 +10°C° 0.3 mm 6 mps 757 mmHg 84%
    05:00 +10°C° 0.3 mm 5 mps 757 mmHg 84%
    06:00 +10°C° 0.3 mm 5 mps 758 mmHg 84%
    07:00 +10°C° 0.3 mm 5 mps 758 mmHg 84%
    08:00 +11°C° 0.4 mm 4 mps 758 mmHg 83%
    09:00 +12°C° 0.4 mm 4 mps 758 mmHg 82%
    10:00 +12°C° 0.4 mm 3 mps 758 mmHg 80%
    11:00 +12°C° 0.4 mm 3 mps 758 mmHg 79%
    12:00 +14°C° 0.4 mm 2 mps 758 mmHg 77%
    13:00 +14°C° 0.4 mm 2 mps 758 mmHg 75%
    14:00 +14°C° 0.1 mm 1 mps 758 mmHg 75%
    15:00 +13°C° 0.1 mm 1 mps 758 mmHg 76%
    16:00 +13°C° 0.1 mm 1 mps 758 mmHg 76%
    17:00 +12°C° 0 mm 1 mps 758 mmHg 77%
    18:00 +12°C° 0 mm 1 mps 758 mmHg 78%
    19:00 +11°C° 0 mm 1 mps 759 mmHg 79%
    20:00 +10°C° 0 mm 2 mps 759 mmHg 80%
    21:00 +10°C° 0 mm 2 mps 759 mmHg 81%
    22:00 +10°C° 0 mm 2 mps 759 mmHg 83%
    23:00 +10°C° 0 mm 3 mps 759 mmHg 83%

    21 January, Monday

    Time Temperature Precipitation Wind Pressure Humidity
    00:00 +10°C° 0 mm 3 mps 759 mmHg 84%
    01:00 +10°C° 0 mm 3 mps 759 mmHg 84%
    02:00 +10°C° 0.2 mm 4 mps 759 mmHg 84%
    03:00 +10°C° 0.2 mm 4 mps 759 mmHg 84%
    04:00 +9°C° 0.2 mm 5 mps 759 mmHg 84%
    05:00 +9°C° 0.2 mm 5 mps 759 mmHg 84%
    06:00 +9°C° 0.2 mm 5 mps 759 mmHg 83%
    07:00 +9°C° 0.2 mm 6 mps 759 mmHg 82%
    08:00 +9°C° 0.4 mm 6 mps 759 mmHg 83%
    09:00 +10°C° 0.4 mm 6 mps 759 mmHg 84%
    10:00 +10°C° 0.4 mm 7 mps 759 mmHg 84%
    11:00 +10°C° 1 mm 7 mps 758 mmHg 86%
    12:00 +10°C° 1 mm 6 mps 758 mmHg 87%
    13:00 +9°C° 1 mm 6 mps 758 mmHg 89%
    14:00 +10°C° 1 mm 6 mps 757 mmHg 88%
    15:00 +10°C° 1 mm 6 mps 757 mmHg 87%
    16:00 +10°C° 1 mm 7 mps 757 mmHg 86%
    17:00 +10°C° 0.9 mm 7 mps 757 mmHg 86%
    18:00 +10°C° 0.9 mm 8 mps 757 mmHg 85%
    19:00 +10°C° 0.9 mm 8 mps 757 mmHg 84%
    20:00 +10°C° 0.9 mm 8 mps 757 mmHg 85%
    21:00 +10°C° 0.9 mm 9 mps 756 mmHg 85%
    22:00 +10°C° 0.9 mm 9 mps 756 mmHg 86%
    23:00 +10°C° 2.6 mm 9 mps 756 mmHg 87%

    22 January, Tuesday

    Time Temperature Precipitation Wind Pressure Humidity
    00:00 +9°C° 2.6 mm 10 mps 755 mmHg 87%
    01:00 +9°C° 2.6 mm 10 mps 755 mmHg 88%
    02:00 +9°C° 2.9 mm 10 mps 754 mmHg 89%
    03:00 +9°C° 2.9 mm 10 mps 754 mmHg 90%
    04:00 +9°C° 2.9 mm 11 mps 753 mmHg 92%
    05:00 +10°C° 8.9 mm 9 mps 753 mmHg 92%
    06:00 +10°C° 8.9 mm 8 mps 753 mmHg 92%
    07:00 +11°C° 8.9 mm 7 mps 752 mmHg 92%
    08:00 +11°C° 2.1 mm 7 mps 753 mmHg 87%
    09:00 +11°C° 2.1 mm 6 mps 753 mmHg 82%
    10:00 +13°C° 2.1 mm 5 mps 753 mmHg 77%
    11:00 +13°C° 0.3 mm 5 mps 752 mmHg 76%
    12:00 +13°C° 0.3 mm 4 mps 752 mmHg 74%
    13:00 +13°C° 0.3 mm 4 mps 752 mmHg 72%
    14:00 +13°C° 0.8 mm 4 mps 752 mmHg 75%
    15:00 +12°C° 0.8 mm 4 mps 751 mmHg 77%
    16:00 +12°C° 0.8 mm 4 mps 751 mmHg 79%
    17:00 +11°C° 0.7 mm 4 mps 751 mmHg 79%
    18:00 +11°C° 0.7 mm 4 mps 751 mmHg 79%
    19:00 +11°C° 0.7 mm 4 mps 751 mmHg 79%
    20:00 +11°C° 0.9 mm 4 mps 751 mmHg 79%
    21:00 +11°C° 0.9 mm 4 mps 752 mmHg 78%
    22:00 +10°C° 0.9 mm 3 mps 752 mmHg 78%
    23:00 +10°C° 1.3 mm 3 mps 751 mmHg 78%
    Show more